Regional Weather Roundup
Issued by NWS Columbia, SC

Home | Current Version | Previous Version | Text Only | Print | Product List | Glossary On
Versions: 1 2 3 4 5 6 7 8 9 10 11 12 13 14 15 16 17 18 19 20 21 22 23 24 25 26 27 28 29 30 31 32 33 34 35 36 37 38 39 40 41 42 43 44 45 46 47 48 49 50
000
ASUS42 KCAE 041310
RWRCAE
REGIONAL WEATHER ROUNDUP
NATIONAL WEATHER SERVICE COLUMBIA SC
900 AM EDT SAT JUL 04 2015

NOTE: "FAIR" INDICATES FEW OR NO CLOUDS BELOW 12,000 FEET WITH NO
SIGNIFICANT WEATHER AND/OR OBSTRUCTIONS TO VISIBILITY.

NOT ALL STATIONS ARE QUALITY CONTROLLED BY THE NATIONAL
WEATHER SERVICE. USE DATA WITH CAUTION...ESPECIALLY
DEWPOINT OBSERVATIONS.

SCZ001>056-GAZ040-063>065-077-041400-
...UPSTATE SOUTH CAROLINA...

CITY           SKY/WX    TMP DP  RH WIND       PRES   REMARKS
ANDERSON       LGT RAIN  73  69  87 W13       30.04R
SPARTANBURG      N/A     75  68  78 SW10      30.00S
CLEMSON        LGT RAIN  73  68  84 W10       30.05R
GREENVILLE     CLOUDY    73  66  78 SW13      30.03R
GREENWOOD      CLOUDY    71  68  90 SW12      30.05R
GREER          CLOUDY    74  67  78 SW12      30.00S
ROCK HILL      PTSUNNY   77  68  73 W14       29.99F
CHESTER        CLOUDY    77  68  73 SW6       30.01S
LAURENS        CLOUDY    73  72  94 W3        30.03R


...CENTRAL SOUTH CAROLINA...

CITY           SKY/WX    TMP DP  RH WIND       PRES   REMARKS
COLUMBIA APT   CLOUDY    74  68  81 SW8       30.03R
COLUMBIA OWENS CLOUDY    73  68  84 SW5       30.05R
DARLINGTON     CLOUDY    75  66  73 SW12G21   30.02S
FLORENCE       CLOUDY    76  69  79 SW10      30.02F
MCENTIRE ANGB  CLOUDY    73  69  88 SW6       30.03S
ORANGEBURG     CLOUDY    74  69  85 SW7       30.05S
SUMTER SHAW    CLOUDY    73  68  83 SW9       30.01F
NEWBERRY       CLOUDY    70  66  88 SW6       30.06S
BARNWELL       FAIR      73  72  94 SW5       30.07R
MANNING        RAIN      73  70  88 CALM      30.05S
CAMDEN         FAIR      73  70  88 SW7       30.03R
LANCASTER      CLOUDY    75  72  88 SW10      30.00F
WINNSBORO      CLOUDY    70  70 100 SW9       30.03R


...EASTERN AND COASTAL SOUTH CAROLINA...

CITY           SKY/WX    TMP DP  RH WIND       PRES   REMARKS
MYRTLE BEACH   MOSUNNY   79  68  69 W13       30.07R
N MYRTLE BCH   MOSUNNY   82  68  62 W13G20    30.05R
CONWAY         FAIR      79  70  73 SW7       30.05S
MARION         FAIR      77  68  73 SW9G18    30.03F
HARTSVILLE     FAIR      73  68  83 SW6       30.01S
FLORENCE       CLOUDY    76  69  79 SW10      30.02F
DARLINGTON     CLOUDY    75  66  73 SW12G21   30.02S
CHARLESTON APT MOSUNNY   78  70  76 SW3       30.07F
MOUNT PLEASANT LGT RAIN  79  72  78 SW3       30.08S
WALTERBORO     MOSUNNY   77  68  73 SW5       30.07F
BEAUFORT       SUNNY     80  69  69 W3        30.07F


...EASTERN GEORGIA...

CITY           SKY/WX    TMP DP  RH WIND       PRES   REMARKS
AUGUSTA BUSH F CLOUDY    74  68  81 S5        30.05R
AUGUSTA DANIEL CLOUDY    73  68  84 S6        30.07R
THOMSON        PTSUNNY   73  71  92 CALM      30.11S
WASHINGTON     FAIR      73  73 100 SW6       30.07R
CLAXTON        FAIR      77  70  78 CALM      30.08S
SYLVANIA       PTSUNNY   77  72  83 SW3       30.09R
SAVANNAH       PTSUNNY   80  70  71 CALM      30.08F


...SOUTHERN NORTH CAROLINA...

CITY           SKY/WX    TMP DP  RH WIND       PRES   REMARKS
CHARLOTTE      CLOUDY    76  67  73 W9        29.99S
MONROE         PTSUNNY   78  67  68 SW14G22   29.97F
WADESBORO      PTSUNNY   81  68  65 SW7       29.97F
ROCKINGHAM     PTSUNNY   77  69  74 SW10      29.98F
ASHEVILLE      CLOUDY    67  64  90 NW8       30.05R

$$



USA.gov is the U.S. government's official web portal to all federal, state and local government web resources and services.